Location: Kaseke
(18.0171°S, 31.0526°E)
Time: 06:38:07
(UTC+00:00)

X-37B - Visible Passes

Search period start: 18 June 2021 00:00
Search period end: 28 June 2021 00:00
Orbit: 386 x 389 km, 45.0° (Epoch: 10 June)

Date Brightness Start Highest point End Pass type
(mag) Time Alt. Az. Time Alt. Az. Time Alt. Az.
18 Jun 2.9 17:14:09 10° WSW 17:16:47 23° NW 17:17:19 22° NNW visible
19 Jun 1.0 16:15:20 10° SW 16:18:31 67° NW 16:21:41 10° NE visible
21 Jun 3.4 15:55:42 10° WSW 15:58:19 23° NW 16:00:54 10° N visible
25 Jun 1.8 03:51:04 10° NNW 03:54:08 46° NE 03:57:13 10° ESE visible
26 Jun 3.6 02:53:40 10° N 02:55:53 17° NE 02:58:06 10° E visible
27 Jun 0.6 03:31:10 12° WNW 03:33:59 56° SW 03:37:08 10° SE visible
